Hourly Weather Roundup
Issued by NWS Central Illinois

Home | Current Version | Previous Version | Text Only | Print | Product List | Glossary On
Versions: 1 2 3 4 5 6 7 8 9 10 11 12 13 14 15 16 17 18 19 20 21 22 23 24 25 26 27 28 29 30 31 32 33 34 35 36 37 38 39 40 41 42 43 44 45 46 47 48 49 50
000
NZUS43 KILX 180310
HWRILX

AREA WEATHER ROUNDUP
NATIONAL WEATHER SERVICE, LINCOLN IL
1000 PM CDT WED SEP 17 2014


CITY           SKY/WX    TMP DP  RH WIND       PRES   REMARKS
BLOOMINGTON    PTCLDY    62  55  77 CALM      30.03R
CHAMPAIGN      CLOUDY    56  52  86 SW5       30.03R
DECATUR        MOCLDY    59  54  83 CALM      30.03R
FLORA          CLEAR     60  55  83 N5        30.01R
GALESBURG      CLEAR     51  47  89 CALM      30.02R
JACKSONVILLE   PTCLDY    56  54  93 CALM      30.02R
LACON          CLEAR     53  51  94 CALM      30.01R
LAWRENCEVILLE  CLOUDY    60  57  89 NE5       30.01R
LITCHFIELD     CLOUDY    58  55  89 NE5       30.01R
$$


CITY           SKY/WX    TMP DP  RH WIND       PRES   REMARKS
LINCOLN        CLOUDY    58  54  84 CALM      30.00S
MACOMB         CLEAR     52  50  95 NE3       30.03S
MATTOON        CLOUDY    57  52  83 CALM      30.01S
MT CARMEL AP   CLOUDY    63  57  82 NE6       30.00S
OLNEY-NOBLE AP CLOUDY    59  55  88 CALM      30.01R
PARIS          CLEAR     50  50  99 CALM      30.03R
PEORIA         CLEAR     57  53  86 CALM      30.02R
PONTIAC        MOCLDY    55  54  94 CALM      30.02R
RANTOUL        MOCLDY    60  52  75 SW3       30.03R
ROBINSON       FOG       54  54  99 CALM      30.02S VSB 1/2
SPRINGFIELD    MOCLDY    57  54  89 CALM      30.01F
TAYLORVILLE    CLOUDY    54  52  94 NE3       30.01S
$$

...REGIONAL REPORTS...


CITY           SKY/WX    TMP DP  RH WIND       PRES   REMARKS
CHICAGO O`HARE CLEAR     61  47  59 CALM      30.02R
KANKAKEE       CLEAR     54  50  86 E3        30.03R
MOLINE         CLEAR     56  52  86 CALM      30.02R
MOUNT VERNON   CLOUDY    61  54  77 N5        30.00R
PITTSFIELD     MOCLDY    57  54  89 CALM      30.02R FOG
QUINCY         MOCLDY    60  56  86 SE7       30.00R
ROCKFORD       CLEAR     55  52  89 CALM      30.04R
$$


CITY           SKY/WX    TMP DP  RH WIND       PRES   REMARKS
BURLINGTON     CLEAR     58  53  84 SE3       30.01R
CEDAR RAPIDS   CLEAR     55  53  93 CALM      30.00R
DES MOINES     CLEAR     66  57  72 E7        29.99R
KIRKSVILLE     CLEAR     61  58  90 E5        30.00R
OTTUMWA        CLEAR     57  53  86 E5        30.00R
ST LOUIS       CLOUDY    63  55  75 CALM      30.00R
$$


CITY           SKY/WX    TMP DP  RH WIND       PRES   REMARKS
TERRE HAUTE    MOCLDY    52  50  93 CALM      30.02S FOG
EVANSVILLE     CLOUDY    64  55  72 CALM      29.99R
INDIANAPOLIS   PTCLDY    55  50  83 SW7       30.02R
LAFAYETTE      CLEAR     53  52  96 W3        30.01R
MADISON        CLEAR     52  50  93 CALM      30.02R
MILWAUKEE      CLEAR     60  46  59 CALM      30.02R
$$





USA.gov is the U.S. government's official web portal to all federal, state and local government web resources and services.